Buffalo, SD

8:23 AM MDT on March 26, 2017 (GMT -0600)
Buffalo

Weather History for K2WX - June, 2013

Change the Weather History Date:

Saturday, June 15, 2013

  Actual Average Record
Temperature  
Mean Temperature 61 °F 63 °F  
Max Temperature 76 °F 75 °F 91 °F (2003)
Min Temperature 46 °F 51 °F 43 °F (1998)
Degree Days  
Heating Degree Days 4 4  
Month to date heating degree days 74 81  
Since 1 June heating degree days 74 81  
Since 1 July heating degree days 7604 7895  
Cooling Degree Days 0 2  
Month to date cooling degree days 3 18  
Year to date cooling degree days 13 24  
Since 1 June cooling degree days 3 18  
Growing Degree Days 10 (Base 50)    
Moisture  
Dew Point 41 °F    
Average Humidity 53    
Maximum Humidity 83    
Minimum Humidity 23    
Precipitation  
Precipitation 0.00 in 0.07 in 0.30 in (2000)
Month to date precipitation 0.39 1.55  
Year to date precipitation 4.55 7.59  
Sea Level Pressure  
Sea Level Pressure 29.93 in    
Wind  
Wind Speed 11 mph (West)    
Max Wind Speed 10 mph    
Max Gust Speed 13 mph    
T = Trace of Precipitation, MM = Missing Value Source: NWS Daily Summary

Daily Weather History Graph

Daily Weather History Graph

Search for Another Location

Airport or City:

Trip Planner

Search our weather history database for the weather conditions in past years. The results will help you decide how hot, cold, wet, or windy it might be!

Date:

Astronomy

Jun. 15, 2013 Rise Set
Actual Time 5:04 AM MDT 8:45 PM MDT
Civil Twilight 4:26 AM MDT 9:23 PM MDT
Nautical Twilight 3:35 AM MDT 10:13 PM MDT
Astronomical Twilight 2:26 AM MDT 11:23 PM MDT
Moon 11:59 AM MDT (6/15) 12:04 AM MDT (6/15)
Length of Visible Light 16h 56m
Length of Day
15h 40m
Waxing Crescent, 40% of the Moon is Illuminated
Jun 15
Waxing Crescent
Jun 16
First Quarter
Jun 23
Full
Jun 29
Last Quarter
Jul 8
New

Hourly Weather History & Observations

Time (MDT) Temp. Windchill Dew Point Humidity Pressure Visibility Wind Dir Wind Speed Gust Speed Precip Events Conditions
12:56 AM 55.9 °F - 46.9 °F 72% 29.95 in - WNW 5.8 mph - N/A   Unknown
1:56 AM 52.0 °F - 46.9 °F 83% 29.95 in - South 8.1 mph - N/A   Unknown
2:56 AM 53.1 °F - 43.0 °F 69% 29.94 in - West 6.9 mph - N/A   Unknown
3:56 AM 48.9 °F - 43.0 °F 80% 29.94 in - West 8.1 mph - N/A   Unknown
4:56 AM 48.0 °F - 42.1 °F 80% 29.96 in - WSW 6.9 mph - N/A   Unknown
5:56 AM 46.0 °F 41.9 °F 41.0 °F 83% 29.96 in - WSW 8.1 mph - N/A   Unknown
6:56 AM 53.1 °F - 44.1 °F 71% 29.96 in - West 3.5 mph - N/A   Unknown
7:56 AM 61.0 °F - 42.1 °F 50% 29.95 in - West 12.7 mph - N/A   Unknown
8:56 AM 64.9 °F - 41.0 °F 42% 29.96 in - West 12.7 mph 19.6 mph N/A   Unknown
9:56 AM 66.9 °F - 37.0 °F 33% 29.95 in - West 16.1 mph - N/A   Unknown
10:56 AM 69.1 °F - 37.0 °F 31% 29.95 in - West 23.0 mph 27.6 mph N/A   Unknown
11:56 AM 71.1 °F - 37.0 °F 29% 29.95 in - West 17.3 mph 25.3 mph N/A   Unknown
12:56 PM 72.0 °F - 37.9 °F 29% 29.94 in - West 20.7 mph 28.8 mph N/A   Unknown
1:56 PM 73.9 °F - 36.0 °F 25% 29.93 in - West 19.6 mph 31.1 mph N/A   Unknown
2:56 PM 75.0 °F - 37.0 °F 25% 29.91 in - WNW 21.9 mph 25.3 mph N/A   Unknown
3:56 PM 75.9 °F - 36.0 °F 23% 29.91 in - WSW 13.8 mph - N/A   Unknown
4:56 PM 75.0 °F - 37.9 °F 26% 29.90 in - WNW 12.7 mph - N/A   Unknown
5:56 PM 75.0 °F - 37.9 °F 26% 29.89 in - West 16.1 mph - N/A   Unknown
6:56 PM 73.9 °F - 41.0 °F 30% 29.88 in - NW 8.1 mph - N/A   Unknown
7:56 PM 69.1 °F - 48.0 °F 47% 29.88 in - WNW 9.2 mph - N/A   Unknown
8:56 PM 68.0 °F - 39.9 °F 36% 29.88 in - North 8.1 mph - N/A   Unknown
10:56 PM 64.0 °F - 41.0 °F 43% 29.91 in - South 5.8 mph - N/A   Unknown
11:56 PM 60.1 °F - 43.0 °F 53% 29.91 in - WNW 4.6 mph - N/A   Unknown